,,,PA_Meas_PMT16A,,PR_Meas_QMR101_102,,RH_Meas_QMH101,,SR_Meas_QMS101,,TA_Meas_QMH101,,GenWind,,GenWind,
date,time,status,PA,status,PR,status,RH,status,SR,status,TA,status,DirAvg,status,SpdAvg,
2010-03-15, 00:00:04,VALID,1004.62,VALID,0,VALID,85.4129,VALID,0,VALID,26.0791,VALID,296,VALID,1.63164,
2010-03-15, 00:01:04,VALID,1004.62,VALID,0,VALID,85.329,VALID,0,VALID,26.0985,VALID,289,VALID,0.419141,
2010-03-15, 00:02:04,VALID,1004.6,VALID,0,VALID,85.3519,VALID,0,VALID,26.118,VALID,289,VALID,0.257813,
2010-03-15, 00:03:04,VALID,1004.65,VALID,0,VALID,85.2756,VALID,0,VALID,26.118,VALID,301,VALID,0.411328,
2010-03-15, 00:04:04,VALID,1004.65,VALID,0,VALID,85.4053,VALID,0.100563,VALID,26.116,VALID,296,VALID,0.8625,
2010-03-15, 00:05:04,VALID,1004.66,VALID,0,VALID,85.329,VALID,0,VALID,26.1375,VALID,278,VALID,0.611719,
2010-03-15, 00:06:04,VALID,1004.66,VALID,0,VALID,85.3595,VALID,0,VALID,26.157,VALID,287,VALID,0.536328,
2010-03-15, 00:07:04,VALID,1004.66,VALID,0,VALID,85.4892,VALID,0,VALID,26.157,VALID,296,VALID,0.212891,
2010-03-15, 00:08:04,VALID,1004.62,VALID,0,VALID,85.329,VALID,0,VALID,26.116,VALID,291,VALID,0.298047,
2010-03-15, 00:09:04,VALID,1004.62,VALID,0,VALID,85.0315,VALID,0,VALID,26.1355,VALID,285,VALID,0.940625,
2010-03-15, 00:10:04,VALID,1004.6,VALID,0,VALID,85.0696,VALID,0,VALID,26.1959,VALID,282,VALID,0.361719,
2010-03-15, 00:11:04,VALID,1004.53,VALID,0,VALID,84.9781,VALID,0,VALID,26.1979,VALID,282,VALID,0.313672,
2010-03-15, 00:12:04,VALID,1004.52,VALID,0,VALID,84.9934,VALID,0,VALID,26.1745,VALID,297,VALID,0.053125,
2010-03-15, 00:13:04,VALID,1004.51,VALID,0,VALID,84.9552,VALID,0,VALID,26.1959,VALID,297,VALID,0.0238281,
2010-03-15, 00:14:04,VALID,1004.49,VALID,0,VALID,85.1459,VALID,0,VALID,26.2154,VALID,19,VALID,0.33125,
2010-03-15, 00:15:04,VALID,1004.44,VALID,0,VALID,84.9323,VALID,0,VALID,26.2369,VALID,338,VALID,0.210938,
2010-03-15, 00:16:04,VALID,1004.47,VALID,0,VALID,84.8179,VALID,0,VALID,26.2154,VALID,334,VALID,0.264844,
2010-03-15, 00:17:04,VALID,1004.49,VALID,0,VALID,84.6272,VALID,0,VALID,26.2349,VALID,304,VALID,0.818359,
2010-03-15, 00:18:04,VALID,1004.5,VALID,0,VALID,84.7569,VALID,0,VALID,26.2349,VALID,278,VALID,0.35,
2010-03-15, 00:19:04,VALID,1004.49,VALID,0,VALID,84.8255,VALID,0,VALID,26.2544,VALID,267,VALID,0.346875,
2010-03-15, 00:20:04,VALID,1004.5,VALID,0,VALID,84.5127,VALID,0,VALID,26.2544,VALID,298,VALID,0.676562,
2010-03-15, 00:21:04,VALID,1004.49,VALID,0,VALID,84.4975,VALID,0,VALID,26.2719,VALID,297,VALID,0.660547,
2010-03-15, 00:22:04,VALID,1004.46,VALID,0,VALID,84.322,VALID,0,VALID,26.2933,VALID,294,VALID,0.806641,
2010-03-15, 00:23:04,VALID,1004.44,VALID,0,VALID,84.261,VALID,0,VALID,26.2933,VALID,306,VALID,1.03437,
2010-03-15, 00:24:04,VALID,1004.4,VALID,0,VALID,84.2991,VALID,0,VALID,26.3128,VALID,300,VALID,0.898047,
2010-03-15, 00:25:04,VALID,1004.37,VALID,0,VALID,84.3602,VALID,0,VALID,26.2933,VALID,352,VALID,0.336328,
2010-03-15, 00:26:04,VALID,1004.35,VALID,0,VALID,84.3525,VALID,0,VALID,26.2933,VALID,302,VALID,0.416016,
2010-03-15, 00:27:04,VALID,1004.32,VALID,0,VALID,84.5661,VALID,0,VALID,26.2933,VALID,300,VALID,0.113672,
2010-03-15, 00:28:04,VALID,1004.29,VALID,0,VALID,84.3296,VALID,0,VALID,26.2933,VALID,311,VALID,0.438672,
2010-03-15, 00:29:04,VALID,1004.29,VALID,0,VALID,84.467,VALID,0,VALID,26.2933,VALID,296,VALID,0.211328,
2010-03-15, 00:30:04,VALID,1004.3,VALID,0,VALID,84.3449,VALID,0,VALID,26.2544,VALID,281,VALID,0.45625,
2010-03-15, 00:31:04,VALID,1004.31,VALID,0,VALID,84.4364,VALID,0,VALID,26.2739,VALID,333,VALID,0.473828,
2010-03-15, 00:32:04,VALID,1004.33,VALID,0,VALID,84.467,VALID,0,VALID,26.2544,VALID,290,VALID,0.736719,
2010-03-15, 00:33:04,VALID,1004.37,VALID,0,VALID,84.261,VALID,0,VALID,26.2544,VALID,299,VALID,1.16133,
2010-03-15, 00:34:04,VALID,1004.38,VALID,0,VALID,84.2762,VALID,0,VALID,26.2739,VALID,303,VALID,0.253906,
2010-03-15, 00:35:04,VALID,1004.39,VALID,0,VALID,84.1542,VALID,0,VALID,26.2933,VALID,300,VALID,0.828906,
2010-03-15, 00:36:04,VALID,1004.4,VALID,0,VALID,84.1466,VALID,0,VALID,26.2933,VALID,296,VALID,0.937891,
2010-03-15, 00:37:04,VALID,1004.39,VALID,0,VALID,83.8261,VALID,0,VALID,26.2953,VALID,297,VALID,1.66094,
2010-03-15, 00:38:04,VALID,1004.4,VALID,0,VALID,83.9101,VALID,0,VALID,26.3343,VALID,309,VALID,0.471484,
2010-03-15, 00:39:04,VALID,1004.4,VALID,0,VALID,84.0092,VALID,0,VALID,26.3128,VALID,343,VALID,0.768359,
2010-03-15, 00:40:04,VALID,1004.4,VALID,0,VALID,84.0779,VALID,0,VALID,26.3128,VALID,295,VALID,0.808594,
2010-03-15, 00:41:04,VALID,1004.43,VALID,0,VALID,84.1923,VALID,0,VALID,26.3323,VALID,285,VALID,0.705078,
2010-03-15, 00:42:04,VALID,1004.44,VALID,0,VALID,84.5585,VALID,0,VALID,26.3363,VALID,308,VALID,1.07227,
2010-03-15, 00:43:04,VALID,1004.43,VALID,0,VALID,84.5509,VALID,0,VALID,26.2739,VALID,309,VALID,1.42969,
2010-03-15, 00:44:04,VALID,1004.41,VALID,0,VALID,84.8942,VALID,0,VALID,26.2564,VALID,280,VALID,0.876953,
2010-03-15, 00:45:04,VALID,1004.37,VALID,0,VALID,85.1917,VALID,0,VALID,26.2349,VALID,289,VALID,0.935156,
2010-03-15, 00:46:04,VALID,1004.35,VALID,0,VALID,85.1917,VALID,0,VALID,26.1745,VALID,290,VALID,1.25547,
2010-03-15, 00:47:04,VALID,1004.32,VALID,0,VALID,85.4587,VALID,0,VALID,26.1355,VALID,295,VALID,1.04531,
2010-03-15, 00:48:04,VALID,1004.26,VALID,0,VALID,85.802,VALID,0,VALID,26.0966,VALID,289,VALID,0.967578,
2010-03-15, 00:49:04,VALID,1004.24,VALID,0,VALID,86.0767,VALID,0,VALID,26.0576,VALID,298,VALID,1.03047,
2010-03-15, 00:50:04,VALID,1004.2,VALID,0,VALID,85.8707,VALID,0,VALID,26.0596,VALID,283,VALID,1.84102,
2010-03-15, 00:51:04,VALID,1004.16,VALID,0,VALID,86.0614,VALID,0,VALID,26.0401,VALID,288,VALID,1.94844,
2010-03-15, 00:52:04,VALID,1004.14,VALID,0,VALID,86.2521,VALID,0,VALID,25.9797,VALID,306,VALID,1.50742,
2010-03-15, 00:53:04,VALID,1004.06,VALID,0,VALID,86.5039,VALID,0,VALID,25.9817,VALID,302,VALID,1.48242,
2010-03-15, 00:54:04,VALID,1004.01,VALID,0,VALID,86.4962,VALID,0,VALID,25.9408,VALID,286,VALID,1.70508,
2010-03-15, 00:55:04,VALID,1003.97,VALID,0,VALID,86.8853,VALID,0,VALID,25.9018,VALID,310,VALID,1.24727,
2010-03-15, 00:56:04,VALID,1003.95,VALID,0,VALID,87.0074,VALID,0,VALID,25.8823,VALID,289,VALID,0.708203,
2010-03-15, 00:57:04,VALID,1003.95,VALID,0,VALID,87.1905,VALID,0,VALID,25.8629,VALID,303,VALID,1.49023,
2010-03-15, 00:58:04,VALID,1003.92,VALID,0,VALID,87.1981,VALID,0,VALID,25.8434,VALID,269,VALID,0.991016,
2010-03-15, 00:59:04,VALID,1003.91,VALID,0,VALID,87.3965,VALID,0,VALID,25.8239,VALID,293,VALID,0.666406,
2010-03-15, 01:00:04,VALID,1003.89,VALID,0,VALID,87.4727,VALID,0,VALID,25.8259,VALID,273,VALID,0.635156,
2010-03-15, 01:01:04,VALID,1003.87,VALID,0,VALID,87.6711,VALID,0,VALID,25.7869,VALID,274,VALID,0.350781,
2010-03-15, 01:02:04,VALID,1003.87,VALID,0,VALID,88.0068,VALID,0,VALID,25.7869,VALID,298,VALID,0.676172,
2010-03-15, 01:03:04,VALID,1003.84,VALID,0,VALID,87.9839,VALID,0,VALID,25.746,VALID,294,VALID,1.32266,
2010-03-15, 01:04:04,VALID,1003.79,VALID,0,VALID,87.8389,VALID,0,VALID,25.6856,VALID,291,VALID,1.16562,
2010-03-15, 01:05:04,VALID,1003.8,VALID,0,VALID,88.1822,VALID,0,VALID,25.7071,VALID,295,VALID,0.688281,
2010-03-15, 01:06:04,VALID,1003.79,VALID,0,VALID,88.3043,VALID,0,VALID,25.6876,VALID,285,VALID,1.15508,
2010-03-15, 01:07:04,VALID,1003.74,VALID,0,VALID,88.6705,VALID,0,VALID,25.6876,VALID,290,VALID,0.476953,
2010-03-15, 01:08:04,VALID,1003.77,VALID,0,VALID,88.8307,VALID,0,VALID,25.67,VALID,251,VALID,0.361328,
2010-03-15, 01:09:04,VALID,1003.76,VALID,0,VALID,88.9756,VALID,0,VALID,25.6486,VALID,272,VALID,1.19414,
2010-03-15, 01:10:04,VALID,1003.78,VALID,0,VALID,89.3494,VALID,0,VALID,25.6292,VALID,270,VALID,0.308203,
2010-03-15, 01:11:04,VALID,1003.76,VALID,0,VALID,89.5097,VALID,0,VALID,25.6097,VALID,292,VALID,0.575781,
2010-03-15, 01:12:04,VALID,1003.75,VALID,0,VALID,89.769,VALID,0.100563,VALID,25.5902,VALID,310,VALID,0.154297,
2010-03-15, 01:13:04,VALID,1003.74,VALID,0,VALID,90.5014,VALID,0,VALID,25.5727,VALID,310,VALID,0.0410156,
2010-03-15, 01:14:04,VALID,1003.71,VALID,0,VALID,90.2725,VALID,0,VALID,25.5123,VALID,280,VALID,0.624219,
2010-03-15, 01:15:04,VALID,1003.7,VALID,0,VALID,90.5472,VALID,0,VALID,25.5123,VALID,294,VALID,0.808984,
2010-03-15, 01:16:04,VALID,1003.66,VALID,0,VALID,90.6921,VALID,0,VALID,25.5142,VALID,282,VALID,0.207422,
2010-03-15, 01:17:04,VALID,1003.61,VALID,0,VALID,90.8905,VALID,0,VALID,25.4734,VALID,293,VALID,0.502344,
2010-03-15, 01:18:04,VALID,1003.59,VALID,0,VALID,91.2109,VALID,0,VALID,25.4734,VALID,276,VALID,0.132031,
2010-03-15, 01:19:04,VALID,1003.53,VALID,0,VALID,91.5084,VALID,0,VALID,25.4948,VALID,294,VALID,0.721875,
2010-03-15, 01:20:04,VALID,1003.5,VALID,0,VALID,91.5084,VALID,0,VALID,25.4558,VALID,303,VALID,0.494141,
2010-03-15, 01:21:04,VALID,1003.45,VALID,0,VALID,91.6,VALID,0,VALID,25.4558,VALID,303,VALID,0.028125,
2010-03-15, 01:22:04,VALID,1003.42,VALID,0,VALID,91.8746,VALID,0,VALID,25.4344,VALID,303,VALID,0.148438,
2010-03-15, 01:23:04,VALID,1003.36,VALID,0,VALID,91.928,VALID,0,VALID,25.4149,VALID,350,VALID,0.524609,
2010-03-15, 01:24:04,VALID,1003.33,VALID,0.5,VALID,91.9967,VALID,0,VALID,25.4363,VALID,350,VALID,0.294141,
2010-03-15, 01:25:04,VALID,1003.28,VALID,0,VALID,92.0882,VALID,0,VALID,25.4169,VALID,333,VALID,0.0460938,
2010-03-15, 01:26:04,VALID,1003.27,VALID,0,VALID,92.1111,VALID,0,VALID,25.376,VALID,336,VALID,0.529688,
2010-03-15, 01:27:04,VALID,1003.25,VALID,0,VALID,92.2561,VALID,0,VALID,25.4169,VALID,347,VALID,0.340234,
2010-03-15, 01:28:04,VALID,1003.2,VALID,0,VALID,92.34,VALID,0,VALID,25.3974,VALID,349,VALID,0.589453,
2010-03-15, 01:29:04,VALID,1003.15,VALID,0,VALID,92.2484,VALID,0,VALID,25.3584,VALID,326,VALID,0.537891,
2010-03-15, 01:30:04,VALID,1003.12,VALID,0,VALID,92.2637,VALID,0,VALID,25.3584,VALID,357,VALID,0.664844,
2010-03-15, 01:31:04,VALID,1003.06,VALID,0,VALID,92.3781,VALID,0,VALID,25.3584,VALID,312,VALID,0.136719,
2010-03-15, 01:32:04,VALID,1003.02,VALID,0,VALID,92.401,VALID,0,VALID,25.339,VALID,346,VALID,0.523828,
2010-03-15, 01:33:04,VALID,1003.02,VALID,0,VALID,92.4773,VALID,0,VALID,25.3176,VALID,344,VALID,0.286719,
2010-03-15, 01:34:04,VALID,1003.01,VALID,0,VALID,92.5078,VALID,0,VALID,25.3176,VALID,346,VALID,0.215625,
2010-03-15, 01:35:04,VALID,1003.05,VALID,0,VALID,92.5383,VALID,0,VALID,25.3195,VALID,351,VALID,0.277344,
2010-03-15, 01:36:04,VALID,1003.02,VALID,0,VALID,92.5231,VALID,0,VALID,25.3,VALID,345,VALID,0.565625,
2010-03-15, 01:37:04,VALID,1003.03,VALID,0,VALID,92.462,VALID,0,VALID,25.2786,VALID,294,VALID,1.04375,
2010-03-15, 01:38:04,VALID,1003.05,VALID,0,VALID,92.3323,VALID,0,VALID,25.3195,VALID,293,VALID,0.453906,
2010-03-15, 01:39:04,VALID,1003.08,VALID,0,VALID,92.2179,VALID,0,VALID,25.3584,VALID,340,VALID,0.580469,
2010-03-15, 01:40:04,VALID,1003.06,VALID,0,VALID,92.1264,VALID,0,VALID,25.3779,VALID,318,VALID,0.48125,
2010-03-15, 01:41:04,VALID,1003.07,VALID,0,VALID,92.1111,VALID,0,VALID,25.3779,VALID,310,VALID,0.551953,
2010-03-15, 01:42:04,VALID,1003.1,VALID,0,VALID,92.0424,VALID,0.100563,VALID,25.3565,VALID,286,VALID,0.923828,
2010-03-15, 01:43:04,VALID,1003.09,VALID,0,VALID,91.9509,VALID,0,VALID,25.3974,VALID,289,VALID,0.648438,
2010-03-15, 01:44:04,VALID,1003.17,VALID,0,VALID,91.8899,VALID,0,VALID,25.4169,VALID,3,VALID,0.915234,
2010-03-15, 01:45:04,VALID,1003.16,VALID,0,VALID,91.6305,VALID,0,VALID,25.4169,VALID,285,VALID,1.14258,
2010-03-15, 01:46:04,VALID,1003.2,VALID,0,VALID,91.4932,VALID,0,VALID,25.4558,VALID,308,VALID,0.955469,
2010-03-15, 01:47:04,VALID,1003.16,VALID,0,VALID,91.2643,VALID,0,VALID,25.4967,VALID,296,VALID,0.495703,
2010-03-15, 01:48:04,VALID,1003.15,VALID,0,VALID,91.1804,VALID,0,VALID,25.4928,VALID,297,VALID,0.634766,
2010-03-15, 01:49:04,VALID,1003.15,VALID,0,VALID,91.2338,VALID,0,VALID,25.5142,VALID,277,VALID,0.100781,
2010-03-15, 01:50:04,VALID,1003.15,VALID,0,VALID,91.0736,VALID,0,VALID,25.5123,VALID,341,VALID,0.473828,
2010-03-15, 01:51:04,VALID,1003.17,VALID,0,VALID,91.0659,VALID,0,VALID,25.5337,VALID,288,VALID,0.245312,
2010-03-15, 01:52:04,VALID,1003.15,VALID,0,VALID,91.0736,VALID,0,VALID,25.5532,VALID,279,VALID,0.478906,
2010-03-15, 01:53:04,VALID,1003.18,VALID,0,VALID,90.776,VALID,0,VALID,25.5532,VALID,283,VALID,0.794531,
2010-03-15, 01:54:04,VALID,1003.17,VALID,0,VALID,90.9363,VALID,0,VALID,25.5727,VALID,273,VALID,0.121875,
2010-03-15, 01:55:04,VALID,1003.19,VALID,0,VALID,91.1117,VALID,0,VALID,25.5921,VALID,299,VALID,0.404687,
2010-03-15, 01:56:04,VALID,1003.2,VALID,0,VALID,91.3482,VALID,0,VALID,25.5532,VALID,301,VALID,0.134375,
2010-03-15, 01:57:04,VALID,1003.18,VALID,0,VALID,91.4626,VALID,0,VALID,25.5318,VALID,290,VALID,0.739062,
2010-03-15, 01:58:04,VALID,1003.17,VALID,0,VALID,91.1575,VALID,0,VALID,25.5142,VALID,285,VALID,0.485938,
2010-03-15, 01:59:04,VALID,1003.19,VALID,0,VALID,91.2185,VALID,0,VALID,25.5142,VALID,299,VALID,0.7125,
2010-03-15, 02:00:04,VALID,1003.16,VALID,0,VALID,91.3177,VALID,0,VALID,25.5123,VALID,296,VALID,0.398438,
2010-03-15, 02:01:04,VALID,1003.18,VALID,0,VALID,91.2109,VALID,0,VALID,25.4928,VALID,292,VALID,0.266016,
2010-03-15, 02:02:04,VALID,1003.16,VALID,0,VALID,91.3253,VALID,0,VALID,25.5142,VALID,292,VALID,0.538672,
2010-03-15, 02:03:04,VALID,1003.14,VALID,0,VALID,91.4169,VALID,0,VALID,25.5123,VALID,279,VALID,0.0960938,
2010-03-15, 02:04:04,VALID,1003.15,VALID,0,VALID,91.4626,VALID,0,VALID,25.5123,VALID,279,VALID,0.0449219,
2010-03-15, 02:05:04,VALID,1003.13,VALID,0,VALID,91.5161,VALID,0,VALID,25.5142,VALID,279,VALID,0.0632813,
2010-03-15, 02:06:04,VALID,1003.08,VALID,0,VALID,91.5313,VALID,0,VALID,25.5337,VALID,279,VALID,0.0746094,
2010-03-15, 02:07:04,VALID,1003.07,VALID,0,VALID,91.5084,VALID,0,VALID,25.4928,VALID,279,VALID,0.0789063,
2010-03-15, 02:08:04,VALID,1003.04,VALID,0,VALID,91.5847,VALID,0,VALID,25.5142,VALID,280,VALID,0.2,
2010-03-15, 02:09:04,VALID,1003,VALID,0,VALID,91.5466,VALID,0,VALID,25.4734,VALID,317,VALID,0.415625,
2010-03-15, 02:10:04,VALID,1003.01,VALID,0,VALID,91.2262,VALID,0,VALID,25.4558,VALID,349,VALID,1.12891,
2010-03-15, 02:11:04,VALID,1002.97,VALID,0,VALID,91.249,VALID,0,VALID,25.4734,VALID,349,VALID,0.460547,
2010-03-15, 02:12:04,VALID,1002.99,VALID,0,VALID,91.2643,VALID,0,VALID,25.4539,VALID,332,VALID,0.682422,
2010-03-15, 02:13:04,VALID,1003,VALID,0,VALID,91.249,VALID,0,VALID,25.4539,VALID,346,VALID,0.534766,
2010-03-15, 02:14:04,VALID,1002.98,VALID,0,VALID,91.2567,VALID,0,VALID,25.4344,VALID,348,VALID,0.586328,
2010-03-15, 02:15:04,VALID,1003.04,VALID,0,VALID,91.2948,VALID,0,VALID,25.4363,VALID,338,VALID,0.266406,
2010-03-15, 02:16:04,VALID,1003.05,VALID,0,VALID,91.3101,VALID,0,VALID,25.4363,VALID,283,VALID,0.519922,
2010-03-15, 02:17:04,VALID,1003.02,VALID,0,VALID,91.4169,VALID,0,VALID,25.4363,VALID,353,VALID,0.425391,
2010-03-15, 02:18:04,VALID,1003.05,VALID,0,VALID,91.455,VALID,0,VALID,25.4363,VALID,352,VALID,0.291797,
2010-03-15, 02:19:04,VALID,1003.07,VALID,0,VALID,91.6152,VALID,0,VALID,25.4558,VALID,352,VALID,0.119141,
2010-03-15, 02:20:04,VALID,1003.11,VALID,0,VALID,91.5923,VALID,0,VALID,25.4383,VALID,352,VALID,0.264844,
2010-03-15, 02:21:04,VALID,1003.12,VALID,0,VALID,91.661,VALID,0,VALID,25.376,VALID,352,VALID,0.341016,
2010-03-15, 02:22:04,VALID,1003.15,VALID,0,VALID,91.6686,VALID,0,VALID,25.4169,VALID,352,VALID,0.444922,
2010-03-15, 02:23:04,VALID,1003.14,VALID,0,VALID,91.7525,VALID,0,VALID,25.376,VALID,352,VALID,0,
2010-03-15, 02:24:04,VALID,1003.12,VALID,0,VALID,91.7907,VALID,0,VALID,25.3974,VALID,352,VALID,0.258203,
2010-03-15, 02:25:04,VALID,1003.1,VALID,0,VALID,91.6839,VALID,0,VALID,25.3565,VALID,350,VALID,0.223438,
2010-03-15, 02:26:04,VALID,1003.09,VALID,0,VALID,91.6991,VALID,0,VALID,25.3779,VALID,349,VALID,0.119922,
2010-03-15, 02:27:04,VALID,1003.11,VALID,0,VALID,91.6991,VALID,0,VALID,25.3584,VALID,349,VALID,0.142188,
2010-03-15, 02:28:04,VALID,1003.11,VALID,0,VALID,91.7068,VALID,0.100563,VALID,25.3565,VALID,349,VALID,0.194922,
2010-03-15, 02:29:04,VALID,1003.13,VALID,0,VALID,91.7068,VALID,0,VALID,25.376,VALID,349,VALID,0.246875,
2010-03-15, 02:30:04,VALID,1003.1,VALID,0,VALID,91.7831,VALID,0,VALID,25.376,VALID,349,VALID,0,
2010-03-15, 02:31:04,VALID,1003.06,VALID,0,VALID,91.8059,VALID,0,VALID,25.3779,VALID,349,VALID,0,
2010-03-15, 02:32:04,VALID,1003.03,VALID,0,VALID,91.8822,VALID,0,VALID,25.3779,VALID,9,VALID,0.294922,
2010-03-15, 02:33:04,VALID,1003.01,VALID,0,VALID,91.9128,VALID,0,VALID,25.3779,VALID,8,VALID,0.0910156,
2010-03-15, 02:34:04,VALID,1003.02,VALID,0,VALID,91.867,VALID,0,VALID,25.3779,VALID,288,VALID,0.317969,
2010-03-15, 02:35:04,VALID,1002.99,VALID,0,VALID,91.8594,VALID,0,VALID,25.4169,VALID,288,VALID,0,
2010-03-15, 02:36:04,VALID,1003.01,VALID,0,VALID,91.8594,VALID,0,VALID,25.4169,VALID,288,VALID,0.0277344,
2010-03-15, 02:37:04,VALID,1002.99,VALID,0,VALID,91.8746,VALID,0,VALID,25.4169,VALID,288,VALID,0,
2010-03-15, 02:38:04,VALID,1003.05,VALID,0,VALID,91.8594,VALID,0,VALID,25.4169,VALID,285,VALID,0.588281,
2010-03-15, 02:39:04,VALID,1003.06,VALID,0,VALID,91.7068,VALID,0,VALID,25.4169,VALID,294,VALID,0.816406,
2010-03-15, 02:40:04,VALID,1003.09,VALID,0,VALID,91.5161,VALID,0,VALID,25.3955,VALID,291,VALID,1.1082,
2010-03-15, 02:41:04,VALID,1003.12,VALID,0,VALID,91.6534,VALID,0,VALID,25.4344,VALID,290,VALID,0,
2010-03-15, 02:42:04,VALID,1003.13,VALID,0,VALID,91.8136,VALID,0,VALID,25.4558,VALID,290,VALID,0.0339844,
2010-03-15, 02:43:04,VALID,1003.15,VALID,0,VALID,91.7678,VALID,0,VALID,25.4344,VALID,300,VALID,0.723047,
2010-03-15, 02:44:04,VALID,1003.17,VALID,0,VALID,91.5618,VALID,0,VALID,25.4149,VALID,289,VALID,0.708984,
2010-03-15, 02:45:04,VALID,1003.19,VALID,0,VALID,91.3253,VALID,0,VALID,25.4149,VALID,289,VALID,0.912109,
2010-03-15, 02:46:04,VALID,1003.24,VALID,0,VALID,91.3558,VALID,0,VALID,25.4344,VALID,288,VALID,0.596094,
2010-03-15, 02:47:04,VALID,1003.24,VALID,0,VALID,91.3406,VALID,0,VALID,25.4363,VALID,288,VALID,0.482031,
2010-03-15, 02:48:04,VALID,1003.22,VALID,0,VALID,91.4398,VALID,0,VALID,25.4558,VALID,303,VALID,0.619531,
2010-03-15, 02:49:04,VALID,1003.26,VALID,0,VALID,91.2567,VALID,0,VALID,25.4558,VALID,293,VALID,0.573047,
2010-03-15, 02:50:04,VALID,1003.22,VALID,0,VALID,91.3253,VALID,0,VALID,25.4558,VALID,312,VALID,0.0503906,
2010-03-15, 02:51:04,VALID,1003.25,VALID,0,VALID,91.5008,VALID,0,VALID,25.4753,VALID,312,VALID,0.194531,
2010-03-15, 02:52:04,VALID,1003.26,VALID,0,VALID,91.6534,VALID,0,VALID,25.4753,VALID,312,VALID,0.191406,
2010-03-15, 02:53:04,VALID,1003.28,VALID,0,VALID,91.6991,VALID,0,VALID,25.4753,VALID,312,VALID,0.0046875,
2010-03-15, 02:54:04,VALID,1003.28,VALID,0,VALID,91.6763,VALID,0,VALID,25.4344,VALID,319,VALID,0.0722656,
2010-03-15, 02:55:04,VALID,1003.27,VALID,0,VALID,91.6686,VALID,0,VALID,25.4539,VALID,323,VALID,0.178516,
2010-03-15, 02:56:04,VALID,1003.27,VALID,0,VALID,91.7907,VALID,0,VALID,25.4558,VALID,323,VALID,0.0722656,
2010-03-15, 02:57:04,VALID,1003.31,VALID,0,VALID,91.8365,VALID,0,VALID,25.4558,VALID,323,VALID,0.00898437,
2010-03-15, 02:58:04,VALID,1003.29,VALID,0,VALID,91.9356,VALID,0,VALID,25.4558,VALID,323,VALID,0.0679687,
2010-03-15, 02:59:04,VALID,1003.32,VALID,0,VALID,92.073,VALID,0,VALID,25.4558,VALID,323,VALID,0.0945313,
2010-03-15, 03:00:04,VALID,1003.27,VALID,0,VALID,91.928,VALID,0,VALID,25.4363,VALID,327,VALID,0.373828,
2010-03-15, 03:01:04,VALID,1003.29,VALID,0,VALID,91.8822,VALID,0,VALID,25.4558,VALID,338,VALID,0.265625,
2010-03-15, 03:02:04,VALID,1003.28,VALID,0,VALID,91.8594,VALID,0,VALID,25.4344,VALID,301,VALID,0.585547,
2010-03-15, 03:03:04,VALID,1003.29,VALID,0,VALID,91.989,VALID,0,VALID,25.4539,VALID,299,VALID,0.256641,
2010-03-15, 03:04:04,VALID,1003.27,VALID,0,VALID,91.9662,VALID,0,VALID,25.4753,VALID,293,VALID,0.118359,
2010-03-15, 03:05:04,VALID,1003.23,VALID,0,VALID,91.6991,VALID,0,VALID,25.4753,VALID,298,VALID,0.86875,
2010-03-15, 03:06:04,VALID,1003.22,VALID,0,VALID,91.6229,VALID,0,VALID,25.4753,VALID,285,VALID,0.566797,
2010-03-15, 03:07:04,VALID,1003.2,VALID,0,VALID,91.6152,VALID,0,VALID,25.4928,VALID,286,VALID,0.282813,
2010-03-15, 03:08:04,VALID,1003.19,VALID,0,VALID,91.4779,VALID,0,VALID,25.4928,VALID,346,VALID,0.649219,
2010-03-15, 03:09:04,VALID,1003.15,VALID,0,VALID,91.4245,VALID,0,VALID,25.5123,VALID,349,VALID,0.283984,
2010-03-15, 03:10:04,VALID,1003.13,VALID,0,VALID,91.4932,VALID,0,VALID,25.5318,VALID,347,VALID,0.452344,
2010-03-15, 03:11:04,VALID,1003.1,VALID,0,VALID,91.5008,VALID,0,VALID,25.5123,VALID,356,VALID,0.321094,
2010-03-15, 03:12:04,VALID,1003.09,VALID,0,VALID,91.6076,VALID,0,VALID,25.5318,VALID,356,VALID,0.00117188,
2010-03-15, 03:13:04,VALID,1003.07,VALID,0,VALID,91.6229,VALID,0,VALID,25.5532,VALID,338,VALID,0.136328,
2010-03-15, 03:14:04,VALID,1003.05,VALID,0,VALID,91.6763,VALID,0,VALID,25.5318,VALID,338,VALID,0.133984,
2010-03-15, 03:15:04,VALID,1003.03,VALID,0,VALID,91.8059,VALID,0,VALID,25.5532,VALID,338,VALID,0.221875,
2010-03-15, 03:16:04,VALID,1003.03,VALID,0,VALID,91.8365,VALID,0,VALID,25.5337,VALID,337,VALID,0.195703,
2010-03-15, 03:17:04,VALID,1003.04,VALID,0,VALID,91.8517,VALID,0,VALID,25.5142,VALID,309,VALID,0.432422,
2010-03-15, 03:18:04,VALID,1003.03,VALID,0,VALID,91.6839,VALID,0,VALID,25.5142,VALID,307,VALID,0.530469,
2010-03-15, 03:19:04,VALID,1003.05,VALID,0,VALID,91.6763,VALID,0,VALID,25.5337,VALID,277,VALID,0.332422,
2010-03-15, 03:20:04,VALID,1003.04,VALID,0,VALID,91.722,VALID,0,VALID,25.5318,VALID,277,VALID,0.1125,
2010-03-15, 03:21:04,VALID,1003.01,VALID,0,VALID,91.5084,VALID,0,VALID,25.5337,VALID,280,VALID,0.846094,
2010-03-15, 03:22:04,VALID,1003.02,VALID,0,VALID,91.5161,VALID,0,VALID,25.5727,VALID,287,VALID,0.384375,
2010-03-15, 03:23:04,VALID,1003,VALID,0,VALID,91.3864,VALID,0,VALID,25.5921,VALID,288,VALID,1.27305,
2010-03-15, 03:24:04,VALID,1002.98,VALID,0,VALID,91.0431,VALID,0,VALID,25.5941,VALID,272,VALID,0.761328,
2010-03-15, 03:25:04,VALID,1002.98,VALID,0,VALID,91.0583,VALID,0,VALID,25.6116,VALID,277,VALID,0.808984,
2010-03-15, 03:26:04,VALID,1002.97,VALID,0,VALID,90.9973,VALID,0,VALID,25.6116,VALID,278,VALID,0.679688,
2010-03-15, 03:27:04,VALID,1002.98,VALID,0,VALID,91.0125,VALID,0,VALID,25.5902,VALID,317,VALID,0.359766,
2010-03-15, 03:28:04,VALID,1002.98,VALID,0,VALID,90.8142,VALID,0,VALID,25.6116,VALID,287,VALID,0.779688,
2010-03-15, 03:29:04,VALID,1002.99,VALID,0,VALID,90.9363,VALID,0,VALID,25.6116,VALID,278,VALID,0.327344,
2010-03-15, 03:30:04,VALID,1002.96,VALID,0,VALID,91.1575,VALID,0,VALID,25.6097,VALID,278,VALID,0.196484,
2010-03-15, 03:31:04,VALID,1002.96,VALID,0,VALID,91.1651,VALID,0.100563,VALID,25.6506,VALID,275,VALID,0.365234,
2010-03-15, 03:32:04,VALID,1002.94,VALID,0,VALID,91.2414,VALID,0,VALID,25.6097,VALID,349,VALID,0.624609,
2010-03-15, 03:33:04,VALID,1002.89,VALID,0,VALID,91.3024,VALID,0,VALID,25.6097,VALID,309,VALID,0.2625,
2010-03-15, 03:34:04,VALID,1002.88,VALID,0,VALID,91.2262,VALID,0.100563,VALID,25.6097,VALID,5,VALID,0.234375,
2010-03-15, 03:35:04,VALID,1002.88,VALID,0,VALID,91.2796,VALID,0.100563,VALID,25.6292,VALID,298,VALID,0.413672,
2010-03-15, 03:36:04,VALID,1002.87,VALID,0,VALID,91.3253,VALID,0,VALID,25.6506,VALID,282,VALID,0.474609,
2010-03-15, 03:37:04,VALID,1002.87,VALID,0,VALID,91.1728,VALID,0,VALID,25.6292,VALID,292,VALID,0.755469,
2010-03-15, 03:38:04,VALID,1002.85,VALID,0,VALID,90.9973,VALID,0,VALID,25.6292,VALID,346,VALID,0.186328,
2010-03-15, 03:39:04,VALID,1002.85,VALID,0,VALID,90.9057,VALID,0,VALID,25.67,VALID,348,VALID,0.358594,
2010-03-15, 03:40:04,VALID,1002.86,VALID,0,VALID,90.6921,VALID,0.100563,VALID,25.6681,VALID,293,VALID,0.173828,
2010-03-15, 03:41:04,VALID,1002.82,VALID,0,VALID,90.4251,VALID,0,VALID,25.6486,VALID,321,VALID,0.662109,
2010-03-15, 03:42:05,VALID,1002.83,VALID,0,VALID,89.8301,VALID,0,VALID,25.6876,VALID,287,VALID,0.451562,
2010-03-15, 03:43:05,VALID,1002.87,VALID,0,VALID,90.036,VALID,0,VALID,25.7265,VALID,262,VALID,0.252344,
2010-03-15, 03:44:05,VALID,1002.87,VALID,0,VALID,89.4334,VALID,0,VALID,25.746,VALID,303,VALID,0.865234,